Theta_e
303 305 309 311 314 316 316 315 314 312 311 309 308 305 302 302 302 301 302 303 307 313 313 312 311 313 314 315 320 323 325 329 328 328 326 327 326 329 332 337 336 332 331 327 327 328 332 335 342 349 343 340 337 337
303 304 308 310 314 315 315 314 313 312 311 309 308 306 302 302 302 300 302 305 306 310 313 311 310 310 310 310 312 318 327 330 329 326 327 329 328 333 335 334 336 340 339 341 345 344 337 335 336 334 335 338 338 338
303 303 305 310 313 315 314 313 312 312 311 310 308 306 302 302 302 301 302 301 304 312 314 314 313 312 311 311 310 315 322 325 328 327 329 330 332 333 334 332 337 338 336 340 342 338 334 333 333 333 334 335 334 333
302 303 302 307 311 313 314 313 312 312 310 310 309 306 303 302 302 302 303 301 301 309 314 314 315 316 315 312 312 313 318 321 323 324 328 329 330 331 332 334 334 334 335 333 333 332 331 332 333 332 333 333 333 333
302 303 303 304 309 312 313 313 312 312 311 310 309 307 304 302 302 303 305 303 302 306 315 315 313 316 314 313 315 317 319 320 320 322 323 326 328 330 331 332 331 329 331 330 330 331 330 333 333 332 332 333 333 334
298 302 303 303 306 309 312 313 312 312 311 310 309 307 305 303 302 302 303 305 301 303 312 317 317 318 315 316 317 318 318 318 319 319 320 323 321 327 330 332 332 329 328 329 331 330 332 332 331 332 333 332 333 334
294 297 301 303 303 306 310 313 312 312 311 310 308 307 304 303 302 305 305 303 302 304 312 316 319 318 316 317 317 317 318 318 318 319 320 320 323 325 326 329 329 329 329 330 330 330 329 329 329 330 329 332 332 333
294 294 296 302 303 306 308 310 313 311 311 309 308 304 301 302 303 306 303 300 301 306 309 316 319 318 316 318 318 317 316 317 318 318 318 320 321 322 323 329 328 329 330 328 329 328 327 328 330 330 327 329 331 332
294 294 293 297 303 306 308 310 312 311 310 308 305 301 302 302 302 302 303 303 302 305 313 316 319 318 317 318 318 318 319 318 319 318 318 318 318 319 328 329 329 328 329 329 328 327 328 329 327 327 328 330 327 328
294 294 293 294 302 306 308 309 311 310 308 305 301 302 303 300 300 305 308 310 306 307 309 314 317 320 318 319 318 319 319 320 320 321 320 319 321 327 326 327 327 327 326 327 327 327 326 326 327 327 326 326 328 328
293 294 294 294 303 306 309 310 310 308 303 302 302 302 304 306 306 311 311 310 311 311 311 313 316 320 318 319 319 321 320 321 321 322 322 322 324 328 326 327 327 327 326 325 325 324 325 326 326 327 328 325 325 324
294 294 294 294 302 306 310 309 308 305 303 303 302 306 307 309 310 311 311 311 310 309 310 312 315 319 319 321 321 323 322 321 321 322 321 321 330 328 326 326 327 327 326 326 326 326 325 325 325 326 326 325 325 326
295 295 294 294 300 306 308 309 307 304 303 305 306 308 309 309 313 311 312 312 313 312 313 312 316 318 320 322 322 322 321 321 321 322 321 323 330 327 327 326 326 326 326 326 326 325 325 325 325 325 326 326 326 325
296 296 294 294 298 305 308 307 305 302 305 308 309 311 311 312 312 311 312 311 313 314 313 313 316 321 320 322 321 320 322 320 321 320 320 325 328 327 326 325 325 325 325 325 326 325 325 325 326 326 325 325 324 324
298 296 294 296 299 305 305 306 302 304 306 308 310 315 311 311 312 312 313 313 313 314 312 317 318 319 320 321 320 321 321 320 318 319 323 326 328 327 327 326 326 325 324 324 323 324 324 324 325 325 324 324 322 319
301 298 298 299 301 305 304 302 303 303 306 309 311 312 311 311 311 312 312 313 314 314 313 316 319 318 319 319 320 318 317 318 319 321 325 328 328 327 326 325 325 323 321 319 321 322 322 323 323 324 323 321 318 318
300 300 298 298 302 304 302 302 302 304 307 310 313 312 312 313 312 312 312 313 314 316 313 316 317 318 320 318 317 319 318 321 323 324 325 326 326 325 325 324 323 322 321 320 320 322 322 323 323 323 322 319 317 317
300 298 300 299 303 302 302 301 302 304 309 311 313 311 312 311 313 314 314 316 316 317 317 317 320 319 317 317 319 322 324 323 323 324 324 325 325 323 324 324 323 321 320 321 321 322 322 322 322 322 321 319 317 316
303 302 300 302 302 302 303 303 302 308 311 312 312 313 313 316 316 317 318 317 319 320 320 318 319 319 320 323 323 324 323 322 323 323 323 323 324 324 323 323 322 321 321 321 322 322 322 321 321 321 319 319 318 315
302 301 302 302 303 304 305 304 303 309 314 315 314 316 317 318 317 318 319 320 320 319 319 320 321 322 322 323 323 323 321 321 321 321 322 322 322 323 324 323 322 321 320 321 322 320 321 321 320 321 318 318 319 316
302 302 302 303 303 304 305 309 309 311 314 315 315 315 318 318 319 319 319 319 320 320 321 322 322 323 321 322 322 322 323 322 322 322 322 323 321 320 322 322 321 320 318 321 322 321 319 320 320 320 319 318 318 317
303 303 303 302 303 305 308 310 312 312 314 317 316 318 321 320 318 318 318 319 320 321 321 322 322 323 323 322 322 322 322 321 320 318 316 318 321 321 320 320 319 319 320 321 321 322 321 320 320 319 318 318 317 315
301 301 302 304 308 312 313 310 314 316 319 319 318 318 319 318 318 317 319 319 320 320 319 321 323 322 323 322 321 321 321 321 320 319 319 318 318 319 319 319 320 321 321 320 321 321 321 319 318 316 315 315 315 315
303 304 309 310 310 311 310 312 313 316 318 318 318 318 319 318 317 318 319 319 321 321 322 323 320 321 321 322 321 320 320 320 319 319 319 319 319 320 320 320 319 319 319 319 319 321 320 318 316 316 317 317 317 316
309 310 310 310 310 312 314 315 316 316 317 317 317 318 318 317 317 318 320 319 322 321 322 321 319 319 318 319 318 319 320 319 319 320 319 319 319 319 319 319 319 318 318 319 319 318 317 317 316 316 316 316 315 315
314 313 314 313 314 315 316 316 317 317 317 317 317 317 317 315 315 319 319 321 321 321 320 320 320 319 320 318 318 319 319 319 320 319 318 318 318 318 318 317 317 316 316 316 316 316 316 316 316 316 315 315 315 314
314 316 315 312 314 316 318 317 317 317 316 316 316 316 316 317 318 320 320 320 321 320 320 319 318 318 318 318 318 318 318 319 320 318 317 317 316 316 316 315 315 315 316 316 316 316 316 316 315 315 315 315 314 314
314 315 316 316 317 317 318 318 318 319 318 317 316 317 317 317 320 320 320 319 319 319 319 318 318 318 318 318 318 319 318 319 319 319 318 317 317 317 317 317 317 317 317 316 315 315 315 315 315 315 314 315 314 313
315 314 315 317 317 318 318 318 318 318 318 318 318 318 318 319 318 319 318 317 317 317 317 317 318 318 318 318 319 319 318 318 318 318 318 317 317 317 317 317 316 316 316 317 317 316 316 316 315 315 314 314 314 314
315 314 315 316 317 318 318 318 319 318 317 317 317 318 318 318 317 318 318 318 318 317 317 317 317 317 317 318 319 318 318 318 316 318 319 318 317 317 317 318 318 317 317 317 317 316 315 314 314 314 315 315 314 314
314 314 316 316 316 315 316 317 317 317 317 317 317 318 319 320 318 317 318 319 318 318 318 318 318 318 318 318 318 318 318 317 318 319 318 318 318 318 317 317 317 316 314 315 315 314 314 315 315 316 316 315 315 314
316 317 316 316 317 318 318 319 319 320 319 319 319 318 319 318 319 317 316 316 318 317 316 317 317 317 317 317 317 316 316 316 316 316 315 314 314 317 318 318 317 316 315 314 313 314 314 314 313 313 312 313 315 316
317 317 317 318 319 318 318 318 318 318 318 319 319 318 318 318 318 318 317 317 318 318 318 318 318 318 318 318 317 318 317 317 318 317 316 315 315 314 315 315 315 314 314 315 315 315 314 314 314 313 312 311 312 313
Wind_Speed
7 8 8 9 10 11 13 15 17 17 16 14 12 9 7 4 6 5 5 5 6 5 10 9 8 8 9 4 4 9 5 3 2 1 3 2 3 1 5 3 3 4 4 5 5 8 8 3 4 4 5 2 6 7
7 6 7 6 7 8 12 15 17 17 15 15 13 10 8 4 5 5 3 2 4 7 8 17 23 25 21 17 7 3 4 4 5 3 3 2 4 3 5 4 3 3 4 3 5 4 6 7 8 5 5 5 8 8
5 6 5 5 6 7 10 14 16 16 16 15 14 12 9 5 4 3 5 5 5 6 10 10 5 2 5 13 13 4 2 4 2 4 4 2 4 4 5 3 2 3 1 2 5 5 7 7 7 6 7 7 7 8
3 5 6 3 7 7 11 14 16 16 17 15 14 13 10 7 4 4 4 5 5 6 4 1 0 4 3 6 11 10 8 3 3 3 2 3 3 1 1 3 4 5 5 3 10 8 8 6 6 5 6 5 6 6
4 3 5 3 4 7 9 14 17 17 17 16 15 14 12 7 5 7 10 8 7 6 5 7 16 3 4 6 7 6 4 5 4 4 4 1 1 3 0 3 7 1 5 3 4 6 6 7 6 4 5 6 7 8
5 4 4 5 2 7 8 12 16 19 18 17 15 14 12 10 5 3 2 2 6 5 4 4 4 3 4 6 6 3 1 3 4 4 0 2 1 3 5 2 4 5 6 5 4 6 9 6 5 5 4 7 8 8
5 5 4 3 4 4 9 10 14 17 19 18 17 13 10 8 7 4 2 3 3 3 3 5 3 5 4 4 4 4 3 1 3 1 2 1 2 3 3 3 5 5 7 7 7 7 6 3 3 4 5 6 6 7
5 5 5 4 4 3 7 11 13 15 18 19 16 12 7 4 6 6 2 6 13 5 5 4 3 4 7 5 4 2 3 3 2 1 3 4 3 2 2 5 4 4 4 5 5 2 3 2 2 1 1 2 2 4
4 4 5 4 4 3 5 10 13 16 19 20 16 11 5 4 3 1 7 5 10 4 4 3 4 5 6 3 1 4 3 4 2 3 2 3 4 4 6 3 3 3 1 3 1 1 3 4 0 1 1 1 1 3
4 4 4 5 4 2 5 9 14 21 25 23 14 4 2 4 3 1 2 3 4 5 4 5 5 4 6 6 5 3 3 2 5 3 2 4 3 4 3 4 3 2 1 2 4 3 2 3 0 0 0 1 2 3
6 6 5 5 5 3 8 14 23 29 26 6 5 2 3 8 2 3 3 4 5 5 5 5 7 3 3 7 6 2 3 3 4 4 3 4 5 7 5 4 3 4 3 3 1 1 1 1 1 2 3 3 2 4
7 6 6 6 8 7 14 23 32 22 11 10 8 7 7 4 4 5 5 5 6 5 6 6 6 4 4 2 4 4 3 3 2 5 4 3 6 8 6 5 4 3 2 4 2 2 2 3 3 3 4 3 4 2
9 8 9 10 11 9 20 26 33 22 23 11 3 3 4 5 5 6 12 7 6 4 5 6 6 5 3 4 1 4 5 3 4 4 4 3 8 6 5 4 4 2 2 3 3 2 3 4 2 2 4 4 3 3
12 12 11 12 14 14 29 36 29 29 6 3 5 5 6 6 7 6 8 9 3 2 7 8 5 4 2 4 2 4 2 3 4 4 5 5 8 7 5 4 4 3 2 2 2 2 3 3 4 4 4 3 2 4
13 13 14 14 17 18 40 37 33 12 3 3 5 6 9 8 4 6 6 2 2 4 8 5 3 3 4 3 3 3 5 4 3 1 3 6 9 7 6 4 4 4 3 3 2 1 1 0 2 4 4 3 4 5
15 16 17 18 22 22 39 35 18 2 4 3 6 6 5 6 8 7 6 7 4 6 7 5 4 4 5 2 6 6 4 4 4 4 6 8 8 7 6 5 4 3 3 1 1 1 2 3 3 4 5 6 5 6
18 9 21 23 22 32 37 13 4 4 4 5 6 7 6 6 5 3 5 7 6 7 8 6 7 5 2 5 4 2 3 4 5 6 6 7 9 8 6 4 5 4 1 3 4 4 5 4 4 5 7 7 6 6
16 24 19 29 34 36 7 3 3 3 7 8 5 3 4 3 4 5 5 5 7 7 6 4 3 5 3 4 3 4 4 4 4 6 6 7 7 7 5 5 5 2 4 5 5 6 7 7 6 6 8 9 7 4
22 30 35 41 33 9 3 4 3 4 8 3 4 1 3 4 5 4 4 8 5 3 6 3 2 3 3 1 5 5 5 5 6 6 7 8 7 6 6 5 4 3 4 3 5 5 6 6 4 7 8 8 7 6
38 43 43 32 23 4 4 3 6 4 5 3 2 3 3 1 3 6 7 6 7 5 3 2 3 4 3 4 4 5 5 5 6 6 5 5 7 7 7 8 6 2 5 5 6 4 7 6 5 7 8 8 8 9
35 30 27 21 3 2 3 4 2 3 2 1 2 2 1 4 6 7 5 4 4 2 4 4 6 6 7 7 7 7 6 3 1 2 2 5 7 9 8 8 7 7 8 4 6 6 6 4 4 8 8 7 8 10
14 15 6 7 2 7 5 4 2 4 2 1 2 4 6 8 7 4 1 5 4 5 5 6 6 6 5 5 5 3 5 1 1 1 2 2 5 5 6 7 7 7 7 5 6 8 7 6 6 5 4 8 10 9
10 6 2 6 3 2 3 5 1 4 8 6 4 5 5 4 3 1 4 4 4 3 6 7 7 6 7 6 5 3 2 2 4 3 3 6 4 4 5 6 6 8 7 7 5 6 6 5 7 6 7 6 6 7
9 4 3 1 2 3 2 2 2 1 4 5 4 5 4 4 2 6 8 5 5 4 5 7 7 6 5 5 4 2 2 4 5 4 5 7 7 2 5 6 5 6 5 5 7 6 8 10 8 8 7 6 10 11
2 2 1 1 1 4 3 2 4 5 6 7 7 5 3 0 3 3 3 3 4 4 5 5 3 1 3 3 1 0 2 4 3 2 3 5 3 3 2 1 3 1 3 4 6 9 9 9 9 9 7 7 8 8
3 3 3 2 2 3 5 4 5 5 6 4 4 3 1 3 3 2 3 3 3 3 2 3 2 1 2 3 3 1 3 2 1 1 5 5 5 4 6 5 5 6 5 5 9 9 9 11 10 8 9 8 11 11
5 7 4 2 2 3 4 4 3 5 6 4 4 2 2 3 3 3 3 4 3 5 3 3 3 5 5 4 1 2 4 4 1 3 5 5 5 2 3 4 2 4 10 9 9 9 9 9 9 9 14 12 10 11
4 6 7 5 6 4 6 5 5 4 4 2 1 3 3 3 3 2 3 3 3 2 2 2 3 4 5 3 2 3 7 6 5 5 5 6 7 6 6 6 6 6 8 7 9 12 12 14 13 14 13 15 14 16
4 3 3 9 7 5 6 4 4 4 4 3 4 4 4 4 4 3 3 2 2 4 5 4 1 4 4 2 3 4 6 7 3 6 6 3 5 3 4 6 8 10 11 12 13 16 16 14 14 14 14 15 14 12
5 4 3 6 7 6 5 5 6 4 4 5 3 4 5 5 6 5 5 5 6 5 5 5 4 4 5 3 1 3 5 3 6 6 4 3 7 8 10 11 7 9 11 11 11 12 15 18 20 21 20 19 19 18
2 3 4 5 5 5 4 3 4 3 3 4 3 5 5 3 4 7 8 6 3 2 2 2 2 2 2 3 4 6 5 6 5 3 6 9 11 11 8 9 13 10 8 9 10 11 12 13 16 19 21 23 24 22
4 4 4 7 6 4 4 4 4 6 7 9 7 4 2 2 5 3 7 9 7 7 6 5 6 6 6 4 2 5 6 7 9 7 10 19 24 17 12 6 10 11 14 15 16 16 15 14 15 16 20 23 24 25
6 6 7 6 3 3 3 1 2 3 3 6 6 5 6 3 2 2 4 5 6 8 6 5 5 6 7 8 9 11 10 9 11 14 16 14 15 14 14 14 11 10 15 17 17 19 20 22 20 19 19 21 23 25
Wind_Direction
286 287 286 273 259 244 226 217 211 209 213 212 211 218 231 267 312 341 290 263 269 283 290 274 289 301 328 357 350 349 277 184 203 171 295 131 248 156 272 19 292 255 243 193 239 242 217 25 137 275 34 58 20 19
288 279 272 268 255 236 222 209 206 205 208 209 209 212 225 253 302 343 282 308 256 258 296 299 278 272 265 272 294 281 316 272 348 283 198 269 219 193 314 230 178 228 339 3 340 50 80 64 74 72 29 30 28 24
311 305 271 242 242 224 210 201 202 203 206 208 208 208 218 240 291 327 297 299 266 271 278 242 251 178 228 230 221 285 150 339 307 328 329 348 257 294 198 254 205 128 96 124 194 107 97 91 88 69 54 41 31 31
307 333 329 236 227 225 214 206 204 205 206 208 209 206 210 227 271 307 291 292 290 287 280 99 145 288 238 220 215 243 294 262 278 282 298 293 270 255 68 60 286 33 170 112 98 117 117 94 70 53 57 45 29 20
265 312 335 320 211 221 223 215 210 210 208 208 210 209 208 219 257 292 277 266 254 290 325 310 306 233 237 203 218 218 230 277 267 237 227 267 323 247 64 271 121 223 122 148 82 87 68 87 88 69 55 33 13 353
244 271 305 333 309 230 217 216 213 212 209 207 207 205 208 215 253 322 264 22 219 217 279 281 34 195 172 184 195 192 264 268 257 272 218 135 85 287 214 160 74 92 81 34 109 91 92 90 68 50 26 21 9 357
238 244 261 291 310 271 227 213 207 209 209 202 201 199 200 210 227 249 321 340 5 220 257 278 217 151 188 185 191 215 207 241 283 216 214 238 156 254 219 181 131 111 102 92 109 139 125 104 66 14 12 16 15 30
244 245 244 257 295 292 227 217 205 203 200 195 186 171 174 216 265 265 248 315 235 268 260 270 244 199 187 195 202 206 214 207 168 332 196 235 163 237 231 111 123 103 119 118 103 92 92 114 287 321 324 334 63 52
236 252 263 255 268 263 225 199 193 189 189 174 158 148 164 210 200 263 339 327 188 268 300 250 260 181 171 173 121 173 250 207 103 220 155 236 185 222 91 132 103 67 193 120 8 209 198 226 296 54 181 188 12 30
231 235 245 242 247 227 180 191 185 181 168 147 138 163 186 208 173 257 200 206 183 201 225 259 277 217 205 178 174 183 208 179 197 111 156 243 133 92 120 98 85 73 158 202 237 156 171 195 52 9 323 58 70 29
233 233 233 212 206 201 181 180 175 157 137 157 147 160 133 130 111 232 222 219 185 220 208 236 251 218 194 197 168 240 194 172 221 136 250 189 178 151 149 120 100 99 122 131 132 93 26 0 12 169 147 120 73 23
234 230 230 212 193 177 187 181 167 151 153 158 140 130 154 169 207 223 209 202 215 228 169 203 203 239 138 258 204 180 215 197 209 144 230 227 101 135 159 137 123 113 117 102 69 87 118 126 105 116 119 110 104 85
238 235 221 205 195 178 188 180 169 157 135 119 82 186 187 176 217 220 200 192 200 187 178 181 174 171 159 226 174 196 206 190 136 207 220 49 133 154 158 174 160 136 128 119 118 124 140 136 121 156 126 97 77 60
234 228 215 204 194 187 188 182 166 152 107 163 168 185 216 190 223 207 224 196 184 207 174 190 152 186 142 176 176 204 70 187 219 229 202 140 161 153 162 158 182 152 157 139 140 161 141 137 132 124 107 96 64 35
231 219 201 198 192 187 183 178 168 160 137 178 213 221 211 229 236 216 240 272 209 191 175 160 143 201 154 158 204 131 182 218 227 232 110 133 154 161 164 153 150 142 123 96 35 32 44 142 169 125 110 100 71 50
218 196 200 194 183 184 178 165 164 130 159 239 234 241 222 224 234 223 215 225 185 190 191 206 166 192 187 202 193 199 202 212 153 139 120 141 158 166 166 162 125 148 112 72 268 218 242 245 220 149 139 108 85 60
183 194 194 184 171 171 158 144 127 194 223 226 223 228 264 279 254 253 195 222 169 191 191 179 189 171 121 206 196 226 225 97 124 132 141 144 162 164 151 147 164 174 220 303 284 243 229 200 164 146 131 122 104 85
197 198 185 170 159 149 116 158 105 230 231 234 236 213 226 260 269 234 205 178 182 201 195 171 133 192 192 189 172 136 130 117 115 136 141 151 152 148 159 179 181 225 291 271 248 233 203 196 184 161 143 144 144 147
172 170 167 160 150 119 144 150 197 245 220 216 215 296 267 263 243 288 208 170 215 214 148 156 129 172 143 109 118 125 144 150 145 153 142 156 161 167 187 193 210 267 292 264 241 247 205 197 195 181 165 171 176 193
142 147 150 150 154 128 132 198 193 255 211 139 134 223 256 266 196 174 156 166 176 167 108 99 79 74 84 97 89 112 120 140 152 159 163 175 195 203 211 219 228 246 258 245 234 206 210 199 210 187 190 178 185 188
120 133 145 155 147 242 228 178 204 254 116 126 38 337 202 196 157 136 120 165 98 56 101 90 97 88 78 87 85 98 101 113 134 294 167 194 195 212 200 215 225 254 265 221 222 224 225 214 217 190 182 184 177 221
116 128 122 146 240 217 235 182 212 128 184 122 151 220 152 111 94 57 50 93 84 71 79 110 106 125 118 100 96 52 93 104 41 164 211 206 207 212 222 229 240 250 246 244 225 216 211 205 182 179 193 167 193 185
123 113 176 217 247 8 69 341 246 199 181 146 124 78 68 78 59 217 86 74 89 66 90 99 102 82 98 119 132 143 174 279 270 271 221 240 221 232 234 226 235 240 240 243 209 186 186 174 181 182 157 175 189 187
135 199 242 82 357 76 325 296 269 7 64 71 69 80 67 65 95 98 97 97 102 117 128 141 147 136 144 176 205 158 235 272 277 252 251 241 231 182 255 254 232 235 245 211 181 177 177 180 163 190 196 194 185 218
193 35 238 27 165 202 205 97 67 68 74 77 83 83 77 352 94 90 107 115 143 152 139 146 126 46 43 86 86 121 240 266 279 274 197 225 186 205 198 209 209 138 158 156 155 161 173 174 191 219 224 235 251 249
89 64 27 38 54 8 27 65 61 73 80 71 69 85 171 102 76 97 92 64 95 105 73 59 41 50 7 0 328 337 122 169 154 177 140 189 164 192 148 175 148 136 156 157 172 183 200 206 213 226 240 243 243 256
45 47 63 58 63 98 93 78 84 81 78 88 94 101 101 81 86 84 105 64 61 65 59 46 1 338 349 341 38 158 167 171 176 63 109 138 157 210 211 187 219 201 185 210 224 234 245 243 244 240 247 253 262 246
34 27 64 60 81 76 85 72 64 52 65 31 205 50 61 44 69 67 79 88 48 27 358 348 328 328 327 321 280 210 193 197 208 227 216 219 230 233 241 257 266 270 267 264 251 248 250 255 256 252 254 264 283 270
50 31 68 68 66 60 37 45 62 53 8 353 73 67 79 66 75 92 67 2 318 289 278 278 226 294 291 279 262 241 228 234 236 253 237 241 148 2 300 261 263 253 251 257 252 252 253 253 256 266 271 274 276 269
40 351 71 48 50 59 49 31 66 50 45 47 92 133 127 104 53 23 353 349 330 331 338 330 318 301 304 297 237 226 197 229 269 286 317 345 336 317 298 283 296 284 268 262 267 259 238 242 251 258 260 261 260 260
353 44 69 70 74 62 58 68 101 96 88 86 47 67 66 75 60 38 17 3 326 305 341 4 36 45 1 351 13 28 15 341 269 306 318 321 307 287 296 316 308 295 281 264 263 268 272 266 261 261 259 259 258 254
34 51 104 99 101 93 56 41 51 73 69 65 49 45 30 75 78 13 7 20 37 50 54 63 65 42 32 9 331 312 318 293 295 295 325 327 313 305 302 278 258 296 308 295 283 279 275 273 279 283 281 274 268 263
92 89 96 103 85 52 1 68 24 93 83 91 102 103 98 119 108 65 19 8 5 11 360 356 336 339 329 316 321 318 303 304 290 286 288 268 265 286 284 273 267 255 258 272 287 282 276 273 272 278 282 279 276 272